Flag for Brazil

Past Weather in Campo Grande, Mato Grosso Do Sul, Brazil — Yesterday and Last 2 Weeks

Now
73 °F

Clear.


Feels Like: 77 °F
Forecast: N/A
Wind: 13 mph from East

Location: Campo Grande Aeroporto

Current Time: Aug 4, 2020 at 7:48:26 pm

Latest Report: Aug 4, 2020 at 7:00 pm


Visibility: 10 mi

Pressure: 30.15 "Hg (28.41 "Hg at 516m altitude)

Humidity: 36%

Dew Point: 45 °F

Location of Campo GrandeLocation

Past Weather in Campo Grande — Graph

°F

Campo Grande Temperature Yesterday

Maximum temperature yesterday: 84 °F (at 1:00 pm)
Minimum temperature yesterday: 64 °F (at 11:00 pm)
Average temperature yesterday: 74 °F

High & Low Weather Summary for the Past Weeks

 TemperatureHumidityPressure
High88 °F (Jul 23, 12:00 pm)94% (Jul 25, 5:00 am)30.27 "Hg (Jul 25, 5:00 am)
Low54 °F (Jul 25, 6:00 am)25% (Jul 23, 1:00 pm)29.92 "Hg (Jul 24, 2:00 pm)
Average71 °F52%30.10 "Hg
* Reported Jul 20 7:00 pm — Aug 4 7:00 pm, Campo Grande. Weather by CustomWeather, © 2020

Note: Actual official high and low records may vary slightly from our data, if they occured in-between our weather recording intervals... More about our weather records

Campo Grande Weather History for the Previous 24 Hours

Scroll right to see more
 ConditionsComfort  
Time TempWeatherWind HumidityBarometerVisibility
7:00 pm
Tue, Aug 4
73 °FClear.13 mph36%30.15 "Hg10 mi
6:00 pm75 °FClear.12 mph36%30.15 "Hg10 mi
5:00 pm81 °FSunny.12 mph30%30.12 "Hg10 mi
4:00 pm84 °FSunny.14 mph29%30.12 "Hg10 mi
3:00 pm84 °FSunny.15 mph29%30.12 "Hg10 mi
2:00 pm84 °FSunny.14 mph29%30.15 "Hg10 mi
1:00 pm84 °FSunny.13 mph29%30.18 "Hg10 mi
12:00 pm82 °FSunny.10 mph28%30.21 "Hg10 mi
11:00 am82 °FSunny.13 mph30%30.24 "Hg10 mi
10:00 am81 °FSunny.16 mph32%30.24 "Hg10 mi
9:00 am75 °FSunny.14 mph39%30.27 "Hg10 mi
8:00 am70 °FSunny.13 mph46%30.24 "Hg10 mi
7:00 am63 °FSunny.8 mph56%30.24 "Hg10 mi
6:00 am61 °FClear.8 mph59%30.21 "Hg10 mi
5:00 am59 °FClear.8 mph63%30.18 "Hg10 mi
4:00 am57 °FClear.9 mph67%30.18 "Hg10 mi
3:00 am61 °FClear.9 mph59%30.18 "Hg10 mi
2:00 am64 °FClear.10 mph52%30.18 "Hg10 mi
1:00 am66 °FClear.10 mph49%30.21 "Hg10 mi
12:00 am66 °FClear.8 mph52%30.21 "Hg10 mi
11:00 pm
Mon, Aug 3
64 °FClear.8 mph56%30.21 "Hg10 mi
10:00 pm68 °FClear.7 mph49%30.21 "Hg10 mi
9:00 pm70 °FClear.7 mph46%30.18 "Hg10 mi
8:00 pm70 °FClear.6 mph46%30.18 "Hg10 mi
7:00 pm73 °FClear.7 mph41%30.18 "Hg10 mi
Weather by CustomWeather, © 2020

See weather overview